�������C�����ː����j�^�v���󋵏��
Date,Time,Cs137(Bq/L),Cs134(Bq/L),�S��(Bq/L)
2016/12/24,00:00,1.0,0.11,10
2016/12/24,00:10,1.0,0.12,10
2016/12/24,00:20,1.0,0.11,12
2016/12/24,00:30,1.0,0.11,10
2016/12/24,00:40,0.99,0.12,12
2016/12/24,00:50,0.98,0.11,9.3
2016/12/24,01:00,0.98,0.10,ND
2016/12/24,01:10,0.96,0.14,ND
2016/12/24,01:20,1.0,0.11,ND
2016/12/24,01:30,0.98,0.10,ND
2016/12/24,01:40,1.0,0.093,ND
2016/12/24,01:50,1.0,0.089,10
2016/12/24,02:00,0.98,0.10,9.5
2016/12/24,02:10,0.99,0.097,11
2016/12/24,02:20,1.0,0.092,10
2016/12/24,02:30,1.0,0.083,8.8
2016/12/24,02:40,1.0,0.093,ND
2016/12/24,02:50,1.0,0.090,ND
2016/12/24,03:00,1.1,0.085,ND
2016/12/24,03:10,1.1,0.086,ND
2016/12/24,03:20,1.1,0.096,ND
2016/12/24,03:30,1.1,0.11,ND
2016/12/24,03:40,1.1,0.12,8.8
2016/12/24,03:50,1.1,0.14,8.9
2016/12/24,04:00,1.1,0.14,ND
2016/12/24,04:10,1.1,0.14,ND
2016/12/24,04:20,1.1,0.15,ND
2016/12/24,04:30,1.2,0.14,ND
2016/12/24,04:40,1.2,0.14,ND
2016/12/24,04:50,1.2,0.14,ND
2016/12/24,05:00,1.2,0.14,ND
2016/12/24,05:10,1.2,0.15,9.7
2016/12/24,05:20,1.1,0.15,12
2016/12/24,05:30,1.1,0.15,14
2016/12/24,05:40,1.1,0.14,16
2016/12/24,05:50,1.1,0.14,14
2016/12/24,06:00,1.1,0.13,13
2016/12/24,06:10,1.1,0.14,13
2016/12/24,06:20,1.1,0.13,11
2016/12/24,06:30,1.1,0.14,12
2016/12/24,06:40,1.1,0.13,11
2016/12/24,06:50,1.2,0.12,11
2016/12/24,07:00,1.1,0.12,10
2016/12/24,07:10,1.2,0.12,9.7
2016/12/24,07:20,1.1,0.13,9.3
2016/12/24,07:30,1.2,0.12,ND
2016/12/24,07:40,1.2,0.14,9.7
2016/12/24,07:50,1.2,0.14,ND
2016/12/24,08:00,1.2,0.15,ND
2016/12/24,08:10,1.2,0.16,ND
2016/12/24,08:20,1.2,0.18,ND
2016/12/24,08:30,1.2,0.18,ND
2016/12/24,08:40,1.3,0.15,ND
2016/12/24,08:50,1.3,0.15,ND
2016/12/24,09:00,1.2,0.13,ND
2016/12/24,09:10,1.3,0.15,ND
2016/12/24,09:20,1.3,0.15,9.3
2016/12/24,09:30,1.2,0.15,11
2016/12/24,09:40,1.2,0.12,10
2016/12/24,09:50,1.2,0.13,ND
2016/12/24,10:00,1.2,0.15,ND
2016/12/24,10:10,1.1,0.12,ND
2016/12/24,10:20,1.1,0.13,ND
2016/12/24,10:30,1.1,0.13,ND
2016/12/24,10:40,1.1,0.13,ND
2016/12/24,10:50,1.1,0.12,ND
2016/12/24,11:00,1.1,0.13,ND
2016/12/24,11:10,1.1,0.13,ND
2016/12/24,11:20,1.2,0.12,ND
2016/12/24,11:30,1.2,0.12,11
2016/12/24,11:40,1.2,0.13,14
2016/12/24,11:50,1.2,0.13,14
2016/12/24,12:00,1.2,0.15,14
2016/12/24,12:10,1.2,0.15,12
2016/12/24,12:20,1.1,0.13,12
2016/12/24,12:30,1.1,0.15,10
2016/12/24,12:40,1.1,0.11,ND
2016/12/24,12:50,1.1,0.12,ND
2016/12/24,13:00,1.1,0.12,ND
2016/12/24,13:10,1.1,0.12,ND
2016/12/24,13:20,1.2,0.11,ND
2016/12/24,13:30,1.2,0.12,ND
2016/12/24,13:40,1.1,0.13,ND
2016/12/24,13:50,1.2,0.12,ND
2016/12/24,14:00,1.2,0.12,ND
2016/12/24,14:10,1.2,0.12,9.5
2016/12/24,14:20,1.2,0.13,ND
2016/12/24,14:30,1.2,0.13,ND
2016/12/24,14:40,1.3,0.14,9.3
2016/12/24,14:50,1.3,0.15,ND
2016/12/24,15:00,1.2,0.15,ND
2016/12/24,15:10,1.2,0.15,ND
2016/12/24,15:20,1.2,0.15,ND
2016/12/24,15:30,1.2,0.17,ND
2016/12/24,15:40,1.2,0.15,ND
2016/12/24,15:50,1.2,0.16,ND
2016/12/24,16:00,1.3,0.15,ND
2016/12/24,16:10,1.3,0.17,ND
2016/12/24,16:20,1.4,0.15,ND
2016/12/24,16:30,1.4,0.17,ND
2016/12/24,16:40,1.4,0.18,ND
2016/12/24,16:50,1.4,0.13,ND
2016/12/24,17:00,1.4,0.13,ND
2016/12/24,17:10,1.3,0.14,ND
2016/12/24,17:20,1.3,0.13,ND
2016/12/24,17:30,1.2,0.13,ND
2016/12/24,17:40,1.2,0.12,ND
2016/12/24,17:50,1.2,0.13,ND
2016/12/24,18:00,1.1,0.13,ND
2016/12/24,18:10,1.1,0.12,ND
2016/12/24,18:20,1.1,0.13,ND
2016/12/24,18:30,1.2,0.13,ND
2016/12/24,18:40,1.2,0.12,ND
2016/12/24,18:50,1.2,0.12,ND
2016/12/24,19:00,1.2,0.12,ND
2016/12/24,19:10,1.2,0.11,ND
2016/12/24,19:20,1.2,0.11,ND
2016/12/24,19:30,1.2,0.11,ND
2016/12/24,19:40,1.2,0.12,ND
2016/12/24,19:50,1.2,0.12,ND
2016/12/24,20:00,1.2,0.12,ND
2016/12/24,20:10,1.2,0.12,ND
2016/12/24,20:20,1.1,0.12,ND
2016/12/24,20:30,1.1,0.13,ND
2016/12/24,20:40,1.1,0.13,9.5
2016/12/24,20:50,1.1,0.12,ND
2016/12/24,21:00,1.1,0.14,ND
2016/12/24,21:10,1.1,0.15,ND
2016/12/24,21:20,1.1,0.13,ND
2016/12/24,21:30,1.1,0.11,ND
2016/12/24,21:40,1.1,0.10,ND
2016/12/24,21:50,1.1,0.10,ND
2016/12/24,22:00,1.1,0.097,ND
2016/12/24,22:10,1.1,0.095,ND
2016/12/24,22:20,1.1,0.10,ND
2016/12/24,22:30,1.1,0.12,9.3
2016/12/24,22:40,1.1,0.13,10
2016/12/24,22:50,1.0,0.11,10
2016/12/24,23:00,1.0,0.12,8.9
2016/12/24,23:10,1.0,0.12,ND
2016/12/24,23:20,1.0,0.12,ND
2016/12/24,23:30,1.1,0.12,ND
2016/12/24,23:40,1.1,0.11,ND
2016/12/24,23:50,1.1,0.12,ND
